Location: Brienzwiler
(46.7508°N, 8.1014°E)
Time: 08:11:42
(UTC+00:00)

Cosmos 1315 Rocket - Pass Details

Date: 05 July 2020
Orbit: 530 x 568 km, 81.2° (Epoch: 05 August)

Event Time Altitude Azimuth Distance (km) Brightness Sun altitude
Rises 20:44:57 0° 354° (N) 2,752 7.4 -11.0°
Reaches altitude 10° 20:47:13 10° 1° (N) 1,858 6.3 -11.2°
Maximum altitude 20:51:08 43° 74° (ENE) 799 3.5 -11.6°
Enters shadow 20:53:52 18° 140° (SE) 1,418 4.2 -11.9°
